Regional Weather Roundup
Issued by NWS Kansas City/Pleasant Hill, MO

Home | Current Version | Previous Version | Text Only | Print | Product List | Glossary On
Versions: 1 2 3 4 5 6 7 8 9 10 11 12 13 14 15 16 17 18 19 20 21 22 23 24 25 26 27 28 29 30 31 32 33 34 35 36 37 38 39 40 41 42 43 44 45 46 47 48 49 50
000
ASUS43 KEAX 012210
RWREAX

WEATHER ROUNDUP FOR EASTERN KANSAS AND NORTHWEST MISSOURI
NATIONAL WEATHER SERVICE KANSAS CITY/PLEASANT HILL MO
500 PM CDT TUE SEP 01 2015

KSZ040-057-103>105-MOZ028-029-037-043-012300-
...KANSAS CITY METROPOLITAN AREA...

CITY           SKY/WX    TMP DP  RH WIND       PRES   REMARKS
K.C. INTL      MOSUNNY   90  68  48 S16       29.98F HX  94
K.C. DOWNTOWN  SUNNY     90  68  48 SW13      29.97F HX  94
LEES SUMMIT    SUNNY     88  65  46 S14       30.00F HX  90
OLATHE - IXD   SUNNY     86  68  54 S16       30.01S
OLATHE - OJC   SUNNY     85  69  58 S9        29.99F
LAWRENCE       SUNNY     89  67  47 S14       29.97F HX  92

$$

MOZ001>008-011>017-020>025-030>033-038>040-044>046-053-054-012300-
...NORTHERN AND CENTRAL MISSOURI...

CITY           SKY/WX    TMP DP  RH WIND       PRES   REMARKS
ST. JOSEPH     SUNNY     89  68  49 S14       29.96F HX  93
MOSBY          CLEAR     88  64  45 S9        29.98F
WARRENSBURG    SUNNY     90  64  43 SE10      30.00F HX  91
WHITEMAN AFB   MOSUNNY   91  67  45 SW14      30.00F HX  94
CLINTON        SUNNY     91  66  43 S9        30.02F HX  94
SEDALIA        MOSUNNY   91  67  44 S13       30.03F HX  94
WARSAW         NOT AVBL
CHILLICOTHE      N/A     91  71  51 S8        29.99F HX  97
KIRKSVILLE     SUNNY     88  68  51 S8        30.02F HX  91

$$

MOZ041-047>049-056>058-063>065-088>090-097-012300-
...EASTERN AND SOUTHERN MISSOURI...

CITY           SKY/WX    TMP DP  RH WIND       PRES   REMARKS
ST. LOUIS INTL MOSUNNY   91  68  46 S10       30.04F HX  95
SPIRIT OF STL  MOSUNNY   90  71  53 S6        30.02F HX  96
COLUMBIA       MOSUNNY   90  69  50 VRB3      30.03F HX  94
JEFFERSON CITY SUNNY     91  64  40 S9        30.01S HX  92
ROLLA          MOSUNNY   87  67  51 S12       30.05F HX  90
OSAGE BEACH    PTSUNNY   90  66  45 S7        30.04F HX  92
SPRINGFIELD    MOSUNNY   88  65  46 S9        30.05F HX  90
BRANSON        MOSUNNY   90  63  40 S12       30.07F HX  90
JOPLIN         SUNNY     87  67  51 S14       30.03F HX  90
WEST PLAINS    PTSUNNY   82  68  62 SE5       30.09F

$$

IAZ060-094-KSZ022-034>040-054-083-096-NEZ052-066-093-012300-
...KANSAS...SOUTHEAST NEBRASKA AND IOWA...

CITY           SKY/WX    TMP DP  RH WIND       PRES   REMARKS
TOPEKA         SUNNY     90  66  45 S10       29.96F HX  92
MANHATTAN      MOSUNNY   93  62  35 S15G23    29.91F HX  93
EMPORIA        MOSUNNY   88  64  44 S16G24    29.97F
CHANUTE        SUNNY     87  67  51 S17       29.99F HX  90
WICHITA        MOSUNNY   92  64  39 SE20G25   29.93F HX  93
OMAHA          PTSUNNY   89  71  55 S14       29.90F HX  95
LINCOLN        PTSUNNY   91  66  43 S22       29.89F HX  93
FALLS CITY     SUNNY     90  65  43 S16G25    29.93F HX  92
LAMONI         MOSUNNY   89  69  51 S13       29.98S HX  93
DES MOINES     CLOUDY    89  71  55 S8        29.94F HX  95

$$




USA.gov is the U.S. government's official web portal to all federal, state and local government web resources and services.